Location: Joplin, MO
(37.0842°N, 94.5133°W)
Time: 19:01:07
(UTC+02:00)

Vanguard 1 - All Passes

Search period start: 31 March 2023 00:00
Search period end: 10 April 2023 00:00
Orbit: 648 x 3832 km, 34.3° (Epoch: 30 March)

Date Brightness Start Highest point End Pass type
(mag) Time Alt. Az. Time Alt. Az. Time Alt. Az.
31 Mar - 01:30:21 10° W 01:53:47 75° SSW 02:09:03 10° ESE daylight
31 Mar - 03:59:15 10° WNW 04:16:57 41° SW 04:27:48 10° SSE visible
31 Mar - 18:41:41 10° SSW 18:56:22 35° SE 19:15:33 10° E daylight
31 Mar - 21:00:34 10° SW 21:20:37 68° SSE 21:43:15 10° E daylight
31 Mar - 23:24:33 10° W 23:48:06 83° S 00:07:42 10° E daylight
01 Apr - 01:51:43 10° W 02:14:41 68° SSW 02:29:28 10° SE daylight
01 Apr - 04:21:10 10° W 04:36:57 32° SW 04:47:10 10° S visible
01 Apr - 16:51:49 10° SE 16:55:39 11° ESE 16:59:49 10° ESE daylight
01 Apr - 19:00:58 10° SSW 19:16:34 43° SE 19:37:24 10° ENE daylight
01 Apr - 21:21:05 10° WSW 21:41:39 74° SSE 22:04:21 10° E daylight
01 Apr - 23:45:42 10° W 00:09:26 82° S 00:28:33 10° ESE daylight
02 Apr - 02:13:07 10° WNW 02:35:23 61° SSW 02:49:43 10° SE daylight
02 Apr - 04:43:34 10° W 04:56:48 24° SW 05:06:01 10° S visible
02 Apr - 17:06:26 10° SSE 17:15:24 18° SE 17:26:39 10° E daylight
02 Apr - 19:20:40 10° SW 19:36:56 51° SE 19:58:57 10° ENE daylight
02 Apr - 21:41:47 10° WSW 22:02:50 79° SSE 22:25:26 10° E daylight
03 Apr - 00:06:55 10° W 00:30:42 80° S 00:49:19 10° ESE daylight
03 Apr - 02:34:34 10° WNW 02:55:55 52° SW 03:09:45 10° SE visible
03 Apr - 05:06:58 10° W 05:16:32 17° SW 05:23:54 10° SSW visible
03 Apr - 17:24:09 10° S 17:35:12 25° SE 17:50:13 10° E daylight
03 Apr - 19:40:39 10° SW 19:57:30 60° SSE 20:20:20 10° ENE daylight
03 Apr - 22:02:38 10° WSW 22:24:08 82° S 22:46:30 10° E daylight
04 Apr - 00:28:08 10° W 00:51:51 75° SSW 01:09:58 10° ESE daylight
04 Apr - 02:56:10 10° WNW 03:16:13 44° SW 03:29:31 10° SSE visible
04 Apr - 05:34:20 10° WSW 05:36:12 10° WSW 05:37:58 10° SW visible
04 Apr - 17:42:51 10° S 17:55:06 32° SE 18:12:43 10° E daylight
04 Apr - 20:00:53 10° SW 20:18:16 67° SSE 20:41:38 10° E daylight
04 Apr - 22:23:35 10° W 22:45:29 83° S 23:07:32 10° E daylight
05 Apr - 00:49:23 10° W 01:12:51 69° SSW 01:30:28 10° SE daylight
05 Apr - 03:18:00 10° W 03:36:20 35° SW 03:48:55 10° SSE visible
05 Apr - 18:02:08 10° SSW 18:15:09 41° SE 18:34:41 10° ENE daylight
05 Apr - 20:21:19 10° WSW 20:39:13 74° SSE 21:02:53 10° E daylight
05 Apr - 22:44:36 10° W 23:06:50 82° S 23:28:31 10° ESE daylight
06 Apr - 01:10:39 10° WNW 01:33:42 62° SSW 01:50:46 10° SE daylight
06 Apr - 03:40:18 10° W 03:56:17 27° SW 04:07:50 10° S visible
06 Apr - 16:08:42 10° SSE 16:15:01 15° ESE 16:22:53 10° E daylight
06 Apr - 18:21:46 10° SSW 18:35:24 49° SE 18:56:20 10° ENE daylight
06 Apr - 20:41:56 10° WSW 21:00:19 78° SSE 21:24:07 10° E daylight
06 Apr - 23:05:39 10° W 23:28:09 80° S 23:49:24 10° ESE daylight
07 Apr - 01:32:00 10° WNW 01:54:20 54° SW 02:10:51 10° SE daylight
07 Apr - 04:03:25 10° W 04:16:07 20° SW 04:25:58 10° SSW visible
07 Apr - 16:26:01 10° S 16:34:44 22° SE 16:46:52 10° E daylight
07 Apr - 18:41:44 10° SW 18:55:50 58° SSE 19:17:49 10° ENE daylight
07 Apr - 21:02:39 10° WSW 21:21:34 81° S 21:45:20 10° E daylight
07 Apr - 23:26:44 10° W 23:49:23 75° SSW 00:10:09 10° ESE daylight
08 Apr - 01:53:29 10° WNW 02:14:46 46° SW 02:30:38 10° SSE daylight
08 Apr - 04:28:30 10° W 04:35:53 13° WSW 04:42:14 10° SW visible
08 Apr - 16:44:38 10° S 16:54:31 29° SE 17:09:31 10° E daylight
08 Apr - 19:01:55 10° SW 19:16:29 66° SSE 19:39:14 10° E daylight
08 Apr - 21:23:28 10° W 21:42:52 83° S 22:06:30 10° E daylight
08 Apr - 23:47:49 10° W 00:10:28 70° SSW 00:30:44 10° SE daylight
09 Apr - 02:15:12 10° W 02:35:01 37° SW 02:50:04 10° SSE daylight
09 Apr - 17:03:51 10° SSW 17:14:29 38° SE 17:31:33 10° ENE daylight
09 Apr - 19:22:17 10° WSW 19:37:20 73° SSE 20:00:36 10° E daylight
09 Apr - 21:44:21 10° W 22:04:11 82° S 22:27:38 10° ESE daylight
